{"data":{"norad_id":56371,"intl_designator":"2023-060B","name":"ARCTURUS","alt_names":[],"object_type":"PAYLOAD","status":"ACTIVE","operator":null,"country":"US","launch_date":"2023-05-01","launch_site_code":"AFETR","launch_vehicle":null,"mission":null,"orbit_class":"UNKNOWN","rcs_meters":null,"size_class":null,"mass_kg":null,"dimensions":null,"purposes":["comms"],"wikipedia_slug":null,"has_3d_model":false,"image_url":null,"decayed_at":null,"tle_current":{"epoch":"2026-09-19T21:15:38.616768Z","epoch_age_seconds":71409,"freshness":"FRESH","line1":"1 56371U 23060B   26262.88586362 -.00000365  00000+0  00000+0 0  9990","line2":"2 56371   3.0117  78.7036 0000712 199.8538 158.8872  1.00274960 12405","mean_motion":1.0027496,"eccentricity":7.12e-5,"inclination_deg":3.0117,"raan_deg":78.7036,"arg_perigee_deg":199.8538,"mean_anomaly_deg":158.8872,"bstar":0,"rev_number":1240,"period_min":1436.0514329799,"perigee_km":35782.702851376,"apogee_km":35788.706982465,"semimajor_km":42163.84191692,"source":"CELESTRAK","updated_at":"2026-09-20T09:00:35.332324Z"}}}